User: anonymous   Login
Location: Cluj-Napoca
(46.7712°N, 23.6236°E)
Time: 05:24:17
(UTC+02:00)
Language:

AO-92 - Orbit

View from above orbital plane
View from above orbital plane
View from above satellite
View from above satellite

Ground track
Ground track

The orbit data is extracted from the following two-line orbital elements,

1 43137U 18004AC  21339.45182356  .00003012  00000-0  11925-3 0  9990
2 43137  97.3921  51.6715 0007692 338.3500  21.7412 15.26186833216731
Epoch (UTC): 05 December 2021 10:50:37
Eccentricity: 0.0007692
inclination: 97.3921°
perigee height: 482 km
apogee height: 492 km
right ascension of ascending node: 51.6715°
argument of perigee: 338.3500°
revolutions per day: 15.26186833
mean anomaly at epoch: 21.7412°
orbit number at epoch: 21673

The dashed part of the orbit path shows where the satellite is in the earth's shadow,  

DLR